This is the latest recevied weather packets stored in our database for station/object DD3FC-1. If no packets are shown the sender has not sent any weather packets the latest 10 day(s).
| Time | Temp. | Humidity | Pressure | Rain* | Wind** | Luminosity | Snow |
|---|---|---|---|---|---|---|---|
| 1777627845 | 21.11° C | 23% | 1028.3 hPa | 0 mm | - | - | - |
| 1777627245 | 20.56° C | 24% | 1028.5 hPa | 0 mm | - | - | - |
| 1777626645 | 20.56° C | 24% | 1028.8 hPa | 0 mm | - | - | - |
| 1777626045 | 20.56° C | 24% | 1028.8 hPa | 0 mm | - | - | - |
| 1777625445 | 20.56° C | 25% | 1028.9 hPa | 0.25 mm | - | - | - |
| 1777624846 | 20° C | 25% | 1028.9 hPa | 0.25 mm | - | - | - |
| 1777624245 | 19.44° C | 26% | 1028.9 hPa | 0.25 mm | - | - | - |
| 1777623645 | 18.89° C | 26% | 1029 hPa | 0.25 mm | - | - | - |
| 1777623045 | 18.89° C | 26% | 1029.1 hPa | 0.25 mm | - | - | - |
| 1777622446 | 18.89° C | 26% | 1029.2 hPa | 0.25 mm | - | - | - |
| 1777621846 | 18.33° C | 26% | 1029 hPa | 0 mm | - | - | - |
| 1777621246 | 17.78° C | 26% | 1028.7 hPa | 0 mm | - | - | - |
| 1777620646 | 17.78° C | 26% | 1028.5 hPa | 0 mm | - | - | - |
| 1777620046 | 16.67° C | 28% | 1028.5 hPa | 0 mm | - | - | - |
| 1777619446 | 16.11° C | 28% | 1028.2 hPa | 0 mm | - | - | - |
| 1777618846 | 15.56° C | 29% | 1028.2 hPa | 0 mm | - | - | - |
| 1777618246 | 15° C | 28% | 1028.3 hPa | 0 mm | - | - | - |
| 1777617646 | 15° C | 28% | 1028.2 hPa | 0 mm | - | - | - |
| 1777617046 | 14.44° C | 30% | 1028.2 hPa | 0 mm | - | - | - |
| 1777616446 | 13.89° C | 30% | 1028.1 hPa | 0 mm | - | - | - |
| 1777615846 | 13.33° C | 31% | 1027.9 hPa | 0 mm | - | - | - |
| 1777615246 | 12.78° C | 32% | 1027.9 hPa | 0 mm | - | - | - |
| 1777614646 | 12.78° C | 32% | 1028.2 hPa | 0 mm | - | - | - |
| 1777614046 | 12.22° C | 32% | 1028 hPa | 0 mm | - | - | - |
| 1777613446 | 12.22° C | 33% | 1027.8 hPa | 0 mm | - | - | - |
* Rain latest hour (hover to see other rain measurements)
** Current wind speed in m/s (hover to see current wind gust speed)